This is the latest recevied weather packets stored in our database for station/object KG0HG. If no packets are shown the sender has not sent any weather packets the latest 10 day(s).
| Time | Temp. | Humidity | Pressure | Rain* | Wind** | Luminosity | Snow |
|---|---|---|---|---|---|---|---|
| 1778203113 | 18.33° C | 51% | 1010.5 hPa | 0 mm | - | 0 W/m² | - |
| 1778202811 | 18.33° C | 49% | 1010.2 hPa | 0 mm | - | 0 W/m² | - |
| 1778202507 | 18.89° C | 49% | 1010.4 hPa | 0 mm | - | 3 W/m² | - |
| 1778202205 | 18.89° C | 49% | 1010.4 hPa | 0 mm | - | 5 W/m² | - |
| 1778201902 | 18.89° C | 49% | 1010.4 hPa | 0 mm | - | 8 W/m² | - |
| 1778201599 | 18.89° C | 49% | 1010.5 hPa | 0 mm | - | 9 W/m² | - |
| 1778201295 | 18.89° C | 49% | 1010.3 hPa | 0 mm | - | 12 W/m² | - |
| 1778200991 | 18.89° C | 48% | 1010.5 hPa | 0 mm | - | 12 W/m² | - |
| 1778200687 | 18.89° C | 48% | 1010.5 hPa | 0 mm | - | 16 W/m² | - |
| 1778200385 | 19.44° C | 48% | 1010.6 hPa | 0 mm | - | 14 W/m² | - |
| 1778200082 | 19.44° C | 47% | 1010.6 hPa | 0 mm | - | 18 W/m² | - |
| 1778199779 | 19.44° C | 48% | 1010.5 hPa | 0 mm | - | 25 W/m² | - |
| 1778199474 | 19.44° C | 49% | 1010.8 hPa | 0 mm | - | 36 W/m² | - |
| 1778199170 | 19.44° C | 47% | 1010.5 hPa | 0 mm | - | 39 W/m² | - |
| 1778198867 | 19.44° C | 48% | 1010.6 hPa | 0 mm | - | 37 W/m² | - |
| 1778198564 | 19.44° C | 47% | 1010.9 hPa | 0 mm | - | 36 W/m² | - |
| 1778198260 | 20° C | 46% | 1010.8 hPa | 0 mm | - | 38 W/m² | - |
| 1778197958 | 20° C | 45% | 1010.9 hPa | 0 mm | - | 44 W/m² | - |
| 1778197654 | 20° C | 44% | 1010.8 hPa | 0 mm | - | 60 W/m² | - |
| 1778197351 | 20° C | 44% | 1011 hPa | 0 mm | - | 49 W/m² | - |
| 1778197048 | 20° C | 43% | 1011 hPa | 0 mm | - | 48 W/m² | - |
| 1778196746 | 20.56° C | 43% | 1011.1 hPa | 0 mm | - | 50 W/m² | - |
| 1778196443 | 20.56° C | 45% | 1011 hPa | 0 mm | - | 35 W/m² | - |
| 1778196140 | 20.56° C | 43% | 1010.9 hPa | 0 mm | - | 40 W/m² | - |
| 1778195836 | 20.56° C | 43% | 1011.1 hPa | 0 mm | - | 42 W/m² | - |
* Rain latest hour (hover to see other rain measurements)
** Current wind speed in m/s (hover to see current wind gust speed)